EWG105A EDDK-EGKK

Flight info

Callsign EWG105A
Flight time 0h 55m
Altitude 32000
Route NVO2Q NVO Y868 NAVAK DCT DENUT L610 TEBRA
Aircraft A20N/M-SDE2E3FGHIRWXY/LB1

Departure

Time 2026-04-22 18:39
Airport Cologne Bonn Airport (EDDK)

Arrival

Time 2026-04-22 19:34
Airport London Gatwick Airport (EGKK)
Time Latitude Longitude Altitude Speed Heading
2026-04-22 18:12 50.87697 7.12382 233 ft 0 kts 288°
2026-04-22 18:25 50.87695 7.12388 232 ft 3 kts 288°
2026-04-22 18:25 50.87687 7.12428 236 ft 4 kts 291°
2026-04-22 18:26 50.87656 7.12490 233 ft 4 kts
2026-04-22 18:26 50.87644 7.12487 232 ft 1 kts 18°
2026-04-22 18:26 50.87643 7.12487 232 ft 0 kts 18°
2026-04-22 18:28 50.87649 7.12490 234 ft 3 kts 18°
2026-04-22 18:28 50.87694 7.12513 232 ft 11 kts 18°
2026-04-22 18:29 50.87781 7.12558 232 ft 15 kts 18°
2026-04-22 18:29 50.87887 7.12611 232 ft 17 kts 18°
2026-04-22 18:29 50.87966 7.12685 232 ft 0 kts 46°
2026-04-22 18:30 50.87967 7.12688 232 ft 2 kts 46°
2026-04-22 18:30 50.87997 7.12765 238 ft 0 kts 70°
2026-04-22 18:31 50.87999 7.12773 236 ft 0 kts 70°
2026-04-22 18:35 50.88000 7.12778 237 ft 3 kts 70°
2026-04-22 18:35 50.88007 7.12858 238 ft 10 kts 90°
2026-04-22 18:35 50.87982 7.12986 238 ft 14 kts 122°
2026-04-22 18:35 50.87938 7.13063 238 ft 0 kts 137°
2026-04-22 18:37 50.87895 7.13127 238 ft 34 kts 136°
2026-04-22 18:38 50.87548 7.13634 239 ft 100 kts 139°
2026-04-22 18:38 50.86910 7.14559 260 ft 146 kts 137°
2026-04-22 18:38 50.86071 7.15733 420 ft 171 kts 136°
2026-04-22 18:39 50.84197 7.18259 1585 ft 177 kts 136°
2026-04-22 18:39 50.83269 7.19524 2200 ft 175 kts 135°
2026-04-22 18:39 50.82348 7.20789 2786 ft 177 kts 135°
2026-04-22 18:39 50.81405 7.22079 3344 ft 182 kts 137°
2026-04-22 18:40 50.80397 7.23396 3875 ft 196 kts 140°
2026-04-22 18:40 50.79194 7.24612 4407 ft 216 kts 152°
2026-04-22 18:40 50.77663 7.25214 4938 ft 240 kts 181°
2026-04-22 18:40 50.76061 7.24427 5802 ft 247 kts 212°
2026-04-22 18:41 50.74891 7.22441 6738 ft 252 kts 243°
2026-04-22 18:41 50.74469 7.19751 7575 ft 257 kts 272°
2026-04-22 18:41 50.74828 7.16971 8372 ft 264 kts 288°
2026-04-22 18:41 50.75356 7.14066 8866 ft 286 kts 287°
2026-04-22 18:42 50.75867 7.10972 9623 ft 295 kts 285°
2026-04-22 18:42 50.76347 7.07768 10124 ft 300 kts 285°
2026-04-22 18:42 50.76800 7.04532 10281 ft 301 kts 284°
2026-04-22 18:42 50.77238 7.01304 10318 ft 301 kts 284°
2026-04-22 18:43 50.77672 6.98071 10319 ft 301 kts 284°
2026-04-22 18:43 50.78115 6.94781 10323 ft 310 kts 284°
2026-04-22 18:43 50.78561 6.91464 10397 ft 315 kts 284°
2026-04-22 18:43 50.79034 6.87960 10570 ft 336 kts 284°
2026-04-22 18:44 50.79534 6.84253 11112 ft 349 kts 284°
2026-04-22 18:44 50.80037 6.80492 11936 ft 353 kts 284°
2026-04-22 18:44 50.80551 6.76633 12763 ft 358 kts 284°
2026-04-22 18:44 50.81060 6.72805 13569 ft 362 kts 284°
2026-04-22 18:45 50.81584 6.68852 14342 ft 366 kts 284°
2026-04-22 18:45 50.82092 6.64891 15091 ft 370 kts 282°
2026-04-22 18:45 50.82324 6.60787 15841 ft 376 kts 273°
2026-04-22 18:45 50.82360 6.56651 16564 ft 380 kts 274°
2026-04-22 18:46 50.82408 6.52447 17275 ft 384 kts 274°
2026-04-22 18:46 50.82462 6.48226 17989 ft 387 kts 274°
2026-04-22 18:46 50.82516 6.43955 18687 ft 391 kts 274°
2026-04-22 18:46 50.82568 6.39631 19306 ft 394 kts 274°
2026-04-22 18:47 50.82618 6.35279 19926 ft 397 kts 274°
2026-04-22 18:47 50.82667 6.30838 20551 ft 401 kts 274°
2026-04-22 18:47 50.82714 6.26467 21156 ft 404 kts 274°
2026-04-22 18:47 50.82760 6.21963 21760 ft 408 kts 274°
2026-04-22 18:48 50.82805 6.17441 22377 ft 410 kts 274°
2026-04-22 18:48 50.82848 6.12899 22968 ft 414 kts 274°
2026-04-22 18:48 50.83062 6.08422 23533 ft 413 kts 285°
2026-04-22 18:48 50.83784 6.03987 24086 ft 414 kts 289°
2026-04-22 18:49 50.84539 5.99615 24610 ft 416 kts 289°
2026-04-22 18:49 50.85308 5.95188 25116 ft 418 kts 289°
2026-04-22 18:49 50.86080 5.90721 25621 ft 420 kts 289°
2026-04-22 18:49 50.86848 5.86262 26091 ft 422 kts 289°
2026-04-22 18:50 50.87614 5.81783 26556 ft 424 kts 288°
2026-04-22 18:50 50.88382 5.77272 27007 ft 427 kts 288°
2026-04-22 18:50 50.89152 5.72729 27465 ft 429 kts 288°
2026-04-22 18:50 50.89935 5.68097 27900 ft 431 kts 288°
2026-04-22 18:51 50.90707 5.63514 28333 ft 433 kts 288°
2026-04-22 18:51 50.91223 5.60446 28603 ft 435 kts 288°
2026-04-22 18:51 50.91998 5.55827 29009 ft 437 kts 288°
2026-04-22 18:51 50.92781 5.51144 29398 ft 439 kts 288°
2026-04-22 18:52 50.93819 5.44921 29898 ft 441 kts 288°
2026-04-22 18:52 50.94606 5.40191 30271 ft 444 kts 288°
2026-04-22 18:52 50.95390 5.35463 30602 ft 446 kts 288°
2026-04-22 18:52 50.95919 5.32268 30809 ft 447 kts 288°
2026-04-22 18:53 50.96711 5.27469 31122 ft 449 kts 288°
2026-04-22 18:53 50.97496 5.22702 31445 ft 451 kts 288°
2026-04-22 18:53 50.98284 5.17893 31830 ft 451 kts 288°
2026-04-22 18:53 50.99326 5.11521 32269 ft 449 kts 288°
2026-04-22 18:54 50.99823 5.08470 32323 ft 448 kts 288°
2026-04-22 18:54 51.01378 4.98900 32335 ft 446 kts 288°
2026-04-22 18:55 51.02921 4.89359 32330 ft 446 kts 288°
2026-04-22 18:55 51.04458 4.79790 32330 ft 446 kts 288°
2026-04-22 18:56 51.05985 4.70226 32343 ft 446 kts 288°
2026-04-22 18:56 51.07496 4.60716 32347 ft 446 kts 288°
2026-04-22 18:57 51.09006 4.51149 32352 ft 446 kts 288°
2026-04-22 18:57 51.10508 4.41583 32348 ft 445 kts 288°
2026-04-22 18:58 51.12002 4.32005 32353 ft 445 kts 288°
2026-04-22 18:58 51.13478 4.22492 32345 ft 444 kts 287°
2026-04-22 18:59 51.14952 4.12936 32340 ft 444 kts 287°
2026-04-22 18:59 51.16417 4.03381 32337 ft 444 kts 287°
2026-04-22 19:00 51.17874 3.93821 32334 ft 448 kts 287°
2026-04-22 19:00 51.19352 3.84079 32334 ft 454 kts 287°
2026-04-22 19:01 51.20827 3.74270 32329 ft 453 kts 287°
2026-04-22 19:01 51.22289 3.64493 32333 ft 453 kts 287°
2026-04-22 19:02 51.23745 3.54704 32325 ft 453 kts 287°
2026-04-22 19:02 51.25190 3.44931 32328 ft 452 kts 287°
2026-04-22 19:03 51.26626 3.35148 32331 ft 452 kts 287°
2026-04-22 19:03 51.28050 3.25395 32331 ft 452 kts 287°
2026-04-22 19:04 51.29460 3.15668 32335 ft 451 kts 287°
2026-04-22 19:04 51.30868 3.05899 32336 ft 450 kts 286°
2026-04-22 19:05 51.31566 3.01022 32146 ft 448 kts 286°
2026-04-22 19:05 51.32264 2.96147 31896 ft 451 kts 286°
2026-04-22 19:05 51.32963 2.91248 31638 ft 452 kts 286°
2026-04-22 19:05 51.33663 2.86318 31381 ft 453 kts 286°
2026-04-22 19:06 51.34360 2.81405 31131 ft 452 kts 286°
2026-04-22 19:06 51.35054 2.76510 30883 ft 450 kts 286°
2026-04-22 19:06 51.35649 2.71596 30632 ft 450 kts 283°
2026-04-22 19:07 51.36856 2.61798 29611 ft 446 kts 284°
2026-04-22 19:07 51.37464 2.56964 29373 ft 439 kts 284°
2026-04-22 19:07 51.38056 2.52216 29340 ft 443 kts 284°
2026-04-22 19:08 51.39263 2.42388 29342 ft 459 kts 284°
2026-04-22 19:08 51.40179 2.32213 29264 ft 461 kts 277°
2026-04-22 19:08 51.40376 2.27119 28735 ft 458 kts 276°
2026-04-22 19:09 51.40566 2.22030 28057 ft 457 kts 276°
2026-04-22 19:09 51.40752 2.16986 27396 ft 455 kts 276°
2026-04-22 19:09 51.40936 2.11948 26748 ft 452 kts 276°
2026-04-22 19:09 51.41120 2.06898 26027 ft 450 kts 276°
2026-04-22 19:10 51.41299 2.01920 25294 ft 448 kts 276°
2026-04-22 19:10 51.41478 1.96947 24583 ft 446 kts 276°
2026-04-22 19:10 51.41654 1.92012 23969 ft 442 kts 275°
2026-04-22 19:10 51.41826 1.87160 23254 ft 442 kts 275°
2026-04-22 19:11 51.42000 1.82164 22654 ft 450 kts 275°
2026-04-22 19:11 51.42173 1.77158 22030 ft 456 kts 275°
2026-04-22 19:11 51.42347 1.72033 21267 ft 459 kts 274°
2026-04-22 19:11 51.42515 1.66976 20513 ft 457 kts 274°
2026-04-22 19:12 51.42681 1.61927 19774 ft 453 kts 274°
2026-04-22 19:12 51.42845 1.56873 19028 ft 443 kts 273°
2026-04-22 19:12 51.42999 1.52027 18276 ft 430 kts 273°
2026-04-22 19:12 51.43147 1.47316 17487 ft 422 kts 273°
2026-04-22 19:13 51.43083 1.42610 16647 ft 422 kts 260°
2026-04-22 19:13 51.42294 1.38075 15766 ft 419 kts 244°
2026-04-22 19:13 51.40830 1.34136 14955 ft 408 kts 228°
2026-04-22 19:13 51.38819 1.31130 14571 ft 396 kts 213°
2026-04-22 19:14 51.36546 1.28632 14406 ft 396 kts 210°
2026-04-22 19:14 51.34238 1.26201 14352 ft 395 kts 211°
2026-04-22 19:14 51.31963 1.23723 14350 ft 396 kts 212°
2026-04-22 19:14 51.29724 1.21191 14351 ft 396 kts 213°
2026-04-22 19:15 51.28231 1.19465 14347 ft 396 kts 213°
2026-04-22 19:15 51.25266 1.15998 14347 ft 396 kts 213°
2026-04-22 19:15 51.23221 1.13071 14341 ft 401 kts 227°
2026-04-22 19:15 51.21715 1.09314 14345 ft 405 kts 240°
2026-04-22 19:16 51.20424 1.05318 14343 ft 405 kts 240°
2026-04-22 19:16 51.19139 1.01262 14342 ft 405 kts 241°
2026-04-22 19:16 51.17877 0.97290 14346 ft 405 kts 240°
2026-04-22 19:16 51.16603 0.93314 14343 ft 405 kts 240°
2026-04-22 19:17 51.15306 0.89292 14260 ft 402 kts 240°
2026-04-22 19:17 51.14038 0.85380 13854 ft 400 kts 240°
2026-04-22 19:17 51.12769 0.81478 13278 ft 396 kts 240°
2026-04-22 19:17 51.11495 0.77571 12621 ft 393 kts 240°
2026-04-22 19:18 51.10243 0.73735 11981 ft 389 kts 240°
2026-04-22 19:18 51.09014 0.69978 11789 ft 377 kts 240°
2026-04-22 19:18 51.07841 0.66387 11587 ft 356 kts 240°
2026-04-22 19:18 51.06731 0.62993 11397 ft 337 kts 240°
2026-04-22 19:19 51.05682 0.59792 11225 ft 319 kts 239°
2026-04-22 19:19 51.04687 0.56763 11039 ft 304 kts 239°
2026-04-22 19:19 51.03699 0.53770 10690 ft 300 kts 239°
2026-04-22 19:19 51.02735 0.50854 10321 ft 299 kts 239°
2026-04-22 19:20 51.01775 0.47952 9914 ft 297 kts 239°
2026-04-22 19:20 51.00821 0.45069 9503 ft 295 kts 239°
2026-04-22 19:20 50.99871 0.42198 9073 ft 294 kts 239°
2026-04-22 19:20 50.98947 0.39404 8681 ft 292 kts 239°
2026-04-22 19:21 50.97987 0.36507 8491 ft 285 kts 239°
2026-04-22 19:21 50.97052 0.33694 8438 ft 293 kts 239°
2026-04-22 19:21 50.96111 0.30864 8429 ft 291 kts 239°
2026-04-22 19:21 50.95260 0.27912 8415 ft 294 kts 252°
2026-04-22 19:22 50.95135 0.24704 8413 ft 299 kts 278°
2026-04-22 19:22 50.95551 0.21443 8405 ft 300 kts 281°
2026-04-22 19:22 50.95986 0.18249 8399 ft 300 kts 281°
2026-04-22 19:22 50.96425 0.15045 8396 ft 300 kts 281°
2026-04-22 19:23 50.96866 0.11818 8334 ft 296 kts 281°
2026-04-22 19:23 50.97260 0.08937 8330 ft 282 kts 281°
2026-04-22 19:23 50.97668 0.05977 8331 ft 266 kts 281°
2026-04-22 19:23 50.98053 0.03193 8250 ft 256 kts 281°
2026-04-22 19:24 50.98436 0.00410 7881 ft 260 kts 281°
2026-04-22 19:24 50.98829 -0.02420 7470 ft 262 kts 281°
2026-04-22 19:24 50.99223 -0.05241 7110 ft 261 kts 281°
2026-04-22 19:24 50.99608 -0.08017 6752 ft 260 kts 281°
2026-04-22 19:25 50.99995 -0.10827 6371 ft 258 kts 281°
2026-04-22 19:25 51.00375 -0.13571 6015 ft 256 kts 281°
2026-04-22 19:25 51.00766 -0.16360 5623 ft 256 kts 281°
2026-04-22 19:25 51.01148 -0.19088 5282 ft 255 kts 281°
2026-04-22 19:26 51.01530 -0.21818 4912 ft 253 kts 281°
2026-04-22 19:26 51.01913 -0.24576 4486 ft 254 kts 281°
2026-04-22 19:26 51.02289 -0.27312 4145 ft 252 kts 281°
2026-04-22 19:26 51.02647 -0.29993 4015 ft 253 kts 281°
2026-04-22 19:27 51.02996 -0.32648 3961 ft 253 kts 281°
2026-04-22 19:27 51.03355 -0.35374 3694 ft 251 kts 281°
2026-04-22 19:27 51.03712 -0.38093 3335 ft 252 kts 281°
2026-04-22 19:27 51.04073 -0.40808 3046 ft 249 kts 281°
2026-04-22 19:28 51.04427 -0.43582 2995 ft 256 kts 281°
2026-04-22 19:28 51.04770 -0.46297 2985 ft 243 kts 284°
2026-04-22 19:28 51.05505 -0.48542 3004 ft 221 kts 319°
2026-04-22 19:28 51.06731 -0.49650 2984 ft 192 kts 358°
2026-04-22 19:29 51.07995 -0.49356 2986 ft 178 kts 36°
2026-04-22 19:29 51.09037 -0.48322 2989 ft 178 kts 41°
2026-04-22 19:29 51.10061 -0.47220 2996 ft 178 kts 46°
2026-04-22 19:29 51.10846 -0.45775 2997 ft 169 kts 66°
2026-04-22 19:30 51.11174 -0.44663 2993 ft 165 kts 74°
2026-04-22 19:30 51.11590 -0.42362 2977 ft 163 kts 81°
2026-04-22 19:30 51.11835 -0.40593 2810 ft 163 kts 81°
2026-04-22 19:30 51.12080 -0.38838 2587 ft 159 kts 81°
2026-04-22 19:31 51.12315 -0.37128 2371 ft 157 kts 81°
2026-04-22 19:31 51.12546 -0.35462 2158 ft 152 kts 80°
2026-04-22 19:31 51.12774 -0.33806 1940 ft 151 kts 79°
2026-04-22 19:31 51.12987 -0.32265 1766 ft 133 kts 79°
2026-04-22 19:32 51.13172 -0.30932 1557 ft 116 kts 80°
2026-04-22 19:32 51.13347 -0.29648 1394 ft 120 kts 78°
2026-04-22 19:32 51.13514 -0.28391 1202 ft 116 kts 78°
2026-04-22 19:32 51.13668 -0.27123 1131 ft 119 kts 76°
2026-04-22 19:33 51.13855 -0.25863 906 ft 114 kts 76°
2026-04-22 19:33 51.14033 -0.24634 700 ft 117 kts 77°
2026-04-22 19:33 51.14219 -0.23324 548 ft 120 kts 77°
2026-04-22 19:33 51.14397 -0.22045 388 ft 115 kts 77°
2026-04-22 19:34 51.14565 -0.20815 242 ft 116 kts 77°
2026-04-22 19:34 51.14732 -0.19634 213 ft 94 kts 77°
2026-04-22 19:34 51.14839 -0.18854 204 ft 52 kts 77°
2026-04-22 19:34 51.14955 -0.18484 214 ft 35 kts 51°
2026-04-22 19:35 51.15047 -0.18302 214 ft 0 kts 52°
2026-04-22 19:35 51.15049 -0.18296 209 ft 3 kts 52°
2026-04-22 19:35 51.15094 -0.18209 205 ft 12 kts 42°
2026-04-22 19:36 51.15147 -0.18194 205 ft 0 kts 349°
2026-04-22 19:37 51.15170 -0.18194 210 ft 9 kts 10°
2026-04-22 19:37 51.15228 -0.18108 213 ft 13 kts 20°
2026-04-22 19:37 51.15321 -0.18123 205 ft 15 kts 347°
2026-04-22 19:38 51.15426 -0.18149 205 ft 14 kts 12°
2026-04-22 19:38 51.15464 -0.18048 214 ft 7 kts 76°
2026-04-22 19:38 51.15472 -0.17991 205 ft 9 kts 76°
2026-04-22 19:38 51.15484 -0.17899 205 ft 6 kts 81°
2026-04-22 19:39 51.15495 -0.17817 208 ft 9 kts 77°
2026-04-22 19:39 51.15510 -0.17711 208 ft 11 kts 77°
2026-04-22 19:39 51.15512 -0.17690 208 ft 0 kts 77°
2026-04-22 19:42 51.15515 -0.17670 208 ft 5 kts 77°
2026-04-22 19:42 51.15524 -0.17622 214 ft 2 kts 53°
2026-04-22 19:42 51.15555 -0.17611 206 ft 0 kts 354°
2026-04-22 19:42 51.15573 -0.17616 205 ft 1 kts 349°
2026-04-22 19:43 51.15584 -0.17620 212 ft 0 kts 348°